Weather in Swinoujscie

Poland     53°54′22″N   14°14′47″E
temp.,
°C
wind,
m/s
gust,
m/s
humid.,
%
clouds,
%
prec.,
mm/h
press.,
hPa
HPBL,
m
18 april, sun
sun1823:00+6ne798868 0.0 1022266
02:00+6ene689111 0.0 1022214
05:00+6ene6891100 0.0 1022193
08:00+6ne5690100 0.0 1022171
11:00+6ne5690100 0.0 1022188
14:00+6ne5593100 0.2 1022175
17:00+6ne5699100 6.7 1021120
20:00+7ne699611 7.3 1022155
19 april, mon
mon1923:00+7ene6997100 0.0 1022148
02:00+6ene5697100 0.0 1022112
05:00+6ne4595100 0.0 1021136
08:00+6nne349092 0.0 1022161
11:00+6nne3389100 0.0 1022156
14:00+7nne559110 0.1 1021188
17:00+7nne58909 0.0 1020196
20:00+7ne815834 0.0 1020257
20 april, tue
tue2023:00+7ne814842 0.0 1019221
02:00+6ene698972 0.0 1018154
05:00+6ne6791100 0.1 1018126
08:00+6ene4590100 0.3 1017118
11:00+7ne3387100 0.0 101786
14:00+7nne458738 0.0 1017147
17:00+7nne56865 0.0 1016135
20:00+7ne46872 0.0 101689
21 april, wed
wed2123:00+7nne34840 0.0 101553
02:00+7n34812 0.0 101552
05:00+7nw44820 0.0 101466
08:00+7wnw45845 0.0 1014126
11:00+9w4673100 0.0 1013153
14:00+8nw7118594 0.8 1013326
17:00+8wnw6107015 0.3 1013334
20:00+7w9136433 0.3 1013889
22 april, thu
thu2223:00+5w1114715 0.1 10131222
02:00+4w12157696 0.1 10121164
05:00+4wsw11148095 0.0 10121056
08:00+3wsw91397100 0.5 1011700
11:00+4wsw91296100 2.1 1012813
14:00+6nnw9108370 4.1 1013765
17:00+6n810835 0.1 1016713
20:00+6n56837 0.1 1019475